www.pogodaiklimat.ru

Погода и климат >> Архив погоды >> Бангладеш >> Сандвип


ПОГОДА в Сандвипе

  • Прогноз погоды в Сандвипе
  • Монитор погоды в Сандвипе

АРХИВ ПОГОДЫ в Сандвипе

Время (UTC), дата Ветер
(напр.,м/с)
 
Видим.   Явления Облачность Т
(С)
Тd
(С)
f
(%)
Тe
(С)
Тes
(С)
Комфортность P
(гПа)
Po
(гПа)
Тmin
(С)
Tmax
(С)
R
(мм)
R24
(мм)
S
(см)
18 16.08 штиль 0 4000 м 9/4 540 м
[Sc As op]
+27.6 +27.0 97 +43 +43 опасность
перегрева
1004.5 1004.3
00 17.08 штиль 0 6000 м {дождь} 8/3 540 м
[Sc As trans]
+26.5 +26.0 97 +40 +40 очень
душно
1003.5 1003.3 0.4
03 17.08 Ю 1 7000 м 6/4 540 м
[Sc As trans]
+30.6 +27.0 81 +48 +55 опасность
перегрева
1004.7 1004.5 +25.5
06 17.08 Ю 1 7000 м 8/4 540 м
[Sc As trans]
+30.0 +26.0 79 +45 +55 опасность
перегрева
1004.9 1004.7
09 17.08 Ю 1 7000 м 6/4 540 м
[Sc As trans]
+30.6 +25.0 72 +44 +51 опасность
перегрева
1003.2 1002.9
12 17.08 Ю 1 7000 м 6/4 540 м
[Sc Ac trans]
+29.2 +26.0 83 +44 +44 опасность
перегрева
1002.2 1002.0 +31.1
15 17.08 штиль 0 7000 м 5/4 540 м
[Sc As trans]
+27.5 +26.0 92 +41 +41 опасность
перегрева
1004.4 1004.1
18 17.08 штиль 0 5000 м 5/4 540 м
[Sc As trans]
+27.1 +26.0 94 +41 +41 опасность
перегрева
1004.4 1004.1
00 18.08 штиль 0 6000 м слаб. дождь 9/4 540 м
[Sc As op]
+26.4 +25.0 92 +38 +38 очень
душно
1005.3 1005.1 12
03 18.08 Ю 1 7000 м {дождь} 8/4 540 м
[Sc As trans]
+30.0 +28.0 89 +50 +55 опасность
перегрева
1006.6 1006.4 +25.4
06 18.08 Ю 1 7000 м {дождь} 6/4 540 м
[Sc As trans]
+30.5 +26.0 77 +46 +59 опасность
перегрева
1004.6 1004.3 1
09 18.08 штиль 0 7000 м 5/4 540 м
[Sc As trans]
+31.5 +26.0 73 +47 +55 опасность
перегрева
1004.5 1004.2
12 18.08 штиль 0 7000 м 5/0
[Ac As]
+29.5 +26.0 81 +44 +44 опасность
перегрева
1004.6 1004.3 +31.6
15 18.08 штиль 0 5000 м 5/3 540 м
[Sc As trans]
+28.3 +26.0 87 +42 +42 опасность
перегрева
1006.5 1006.2
18 18.08 штиль 0 5000 м 6/4 540 м
[Sc As op]
+28.0 +26.0 89 +42 +42 опасность
перегрева
1006.7 1006.4
00 19.08 штиль 0 6000 м дождь 10/5 500 м
[Cb calv As op]
+26.0 +25.0 94 +37 +37 очень
душно
1006.4 1006.1 10
03 19.08 Ю 1 7000 м {дождь} 6/4 540 м
[Sc As trans]
+30.0 +27.0 84 +47 +54 опасность
перегрева
1007.7 1007.4 +25.1
06 19.08 Ю 2 7000 м {дождь} 5/3 540 м
[Sc As trans]
+31.4 +27.0 78 +49 +63 опасность
перегрева
1006.9 1006.6 4
09 19.08 Ю 1 7000 м 5/3 540 м
[Sc As trans]
+31.7 +27.0 76 +49 +57 опасность
перегрева
1004.8 1004.6
12 19.08 штиль 0 6000 м 4/0
[Ci fib]
+29.8 +27.0 85 +47 +47 опасность
перегрева
1003.9 1003.7 +31.8
15 19.08 штиль 0 5000 м ясно +28.8 +27.0 90 +45 +45 опасность
перегрева
1005.5 1005.3
18 19.08 штиль 0 5000 м 5/3 540 м
[Sc As trans]
+28.5 +28.0 97 +47 +47 опасность
перегрева
1005.9 1005.6
00 20.08 штиль 0 6000 м 5/3 540 м
[Sc Ac trans Ci fib]
+27.3 +27.0 98 +43 +43 опасность
перегрева
1005.2 1004.9
03 20.08 штиль 0 5000 м 5/3 540 м
[Sc As trans]
+27.6 +27.0 97 +43 +53 опасность
перегрева
1005.6 1005.3
06 20.08 штиль 0 6000 м 6/4 540 м
[Sc As op]
+31.7 +27.0 76 +49 +62 опасность
перегрева
1005.0 1004.8
09 20.08 Ю 1 7000 м 6/3 540 м
[Sc Ci fib]
+32.4 +27.0 73 +50 +58 опасность
перегрева
1002.4 1002.2
12 20.08 штиль 0 6000 м 8/3 540 м
[Sc As op]
+30.1 +26.0 79 +45 +45 опасность
перегрева
1001.7 1001.5 +32.8
15 20.08 штиль 0 5000 м 3/3 540 м
[Sc]
+28.8 +28.0 95 +47 +47 опасность
перегрева
1003.2 1002.9
18 20.08 штиль 0 5000 м 5/3 540 м
[Sc As trans]
+28.4 +27.0 92 +45 +45 опасность
перегрева
1004.0 1003.8
00 21.08 штиль 0 6000 м 6/0
[As trans Ci fib]
+27.8 +27.8 100 +45 +46 опасность
перегрева
1003.3 1003.1
03 21.08 штиль 0 6000 м 8/4 540 м
[Sc As trans]
+30.0 +29.0 94 +52 +58 опасность
перегрева
1003.4 1003.1 +26.9
06 21.08 штиль 0 6000 м 8/4 540 м
[Sc As op]
+33.1 +28.0 75 +54 +62 опасность
перегрева
1002.6 1002.4
09 21.08 штиль 0 6000 м 8/4 540 м
[Sc As op]
+33.0 +27.0 71 +51 +55 опасность
перегрева
1000.9 1000.7
12 21.08 штиль 0 6000 м 8/4 540 м
[Sc As op]
+30.6 +28.0 86 +51 +51 опасность
перегрева
1000.2 1000.0 +33.2
15 21.08 штиль 0 5000 м 3/3 540 м
[Sc]
+29.0 +28.0 94 +48 +48 опасность
перегрева
1002.3 1002.1
18 21.08 штиль 0 5000 м 6/4 540 м
[Sc As op]
+28.7 +27.0 91 +45 +45 опасность
перегрева
1002.4 1002.1
00 22.08 штиль 0 6000 м {дождь} 6/3 540 м
[Sc Ci fib]
+28.2 +28.0 99 +47 +47 опасность
перегрева
1002.5 1002.6 4
03 22.08 С 7 6000 м 6/4 540 м
[Sc As op]
+30.3 +27.0 83 +48 +49 опасность
перегрева
1002.7 1002.4 +27.3
06 22.08 Ю 1 6000 м 6/4 540 м
[Sc As op]
+31.3 +27.0 78 +49 +60 опасность
перегрева
1002.2 1002.0
09 22.08 Ю 1 7000 м 5/3 540 м
[Sc As trans]
+31.0 +27.0 79 +48 +56 опасность
перегрева
1000.3 1000.1
12 22.08 штиль 0 6000 м 5/3 540 м
[Sc As op]
+30.0 +26.0 79 +45 +45 опасность
перегрева
1000.4 1000.2 +32.0
15 22.08 Ю 1 5000 м 8/4 540 м
[Sc As op]
+29.2 +26.0 83 +44 +44 опасность
перегрева
1002.8 1002.6
18 22.08 Ю 1 4000 м слаб. дождь 10/5 500 м
[Cb calv As op]
+28.2 +26.0 88 +42 +42 опасность
перегрева
1002.9 1002.7 0.8
00 23.08 штиль 0 6000 м {дождь} 9/4 540 м
[Sc As op]
+27.2 +26.0 93 +41 +41 опасность
перегрева
1003.4 1003.1 0.4
03 23.08 ЮВ 1 6000 м 5/3 540 м
[Sc As trans]
+30.6 +26.0 77 +46 +55 опасность
перегрева
1003.8 1003.5 +26.5
06 23.08 ЮВ 1 6000 м 6/4 540 м
[Sc As op]
+32.8 +26.0 68 +49 +60 опасность
перегрева
1003.3 1003.1
09 23.08 штиль 0 6000 м 8/4 540 м
[Sc As op]
+31.0 +27.0 79 +48 +53 опасность
перегрева
1001.4 1001.2
12 23.08 штиль 0 6000 м 10/4 540 м
[Sc As op]
+28.9 +28.0 95 +48 +48 опасность
перегрева
1001.6 1001.4 +32.8

 

Местоположение метеостанции Сандвип (Бангладеш): широта 22.48 долгота 91.43 высота над уровнем моря 6 м.

В архиве по умолчанию представлена погода в Сандвипе за последнюю неделю. Архивные данные за месяц целиком и за предыдущие месяцы, начиная с января 2011 года, Вы можете получить, выбрав интересующий диапазон дат из раскрывающегося списка и нажав кнопку "Ввод!".


*Определитесь, кто Вы:
робот инопланетянин человек

Внимание! Время в таблицах - всемирное. Для получения местного времени необходимо прибавить поправку, которая равна 6.5 ч.

Смотрите также архив погоды в соседних городах и на ближайших метеорологических станциях:

Погода в Ситакунду (Бангладеш) (30 км)
Погода в Хатии (Бангладеш) (34 км)
Погода в Читтагонге (Бангладеш) (46 км)
Погода в Маиидиcурте (Бангладеш) (55 км)
Погода в Фени (Бангладеш) (61 км)
Погода в Рангамати (Бангладеш) (79 км)
Погода в Бхоле (Бангладеш) (83 км)
Погода в Кутапдии (Бангладеш) (85 км)
Погода в Комилле (Бангладеш) (109 км)
Погода в Барисале (Бангладеш) (113 км)

Пояснения к столбцам:

Ветер - указаны скорость ветра в м/с - средняя за 10 мин, порывы в срок и между сроками (в фигурных скобках) и направление, откуда дует ветер: С - северный, СВ - северо-восточный, В - восточный, ЮВ - юго-восточный, Ю - южный, ЮЗ - юго-западный, З - западный, СЗ - северо-западный.
Видимость - горизонтальная дальность видимости в метрах или километрах. При видимости от 1 до 10 км при отсутствии осадков обычно наблюдается дымка, при ухудшении видимости до 1 км и менее - туман. В сухую погоду видимость может ухудшаться дымом, пылью или мглою.
Явления - указаны атмосферные явления, наблюдавшиеся в срок или в последний час перед сроком; фигурными скобками обозначены явления, наблюдавшиеся между сроками (за 1-3 часа до срока); квадратными скобками обозначены град или гололедные отложения с указанием их диаметра в мм.
Облачность - указаны через наклонную черту общая и нижняя облачность в баллах и высота нижней границы облаков в метрах; квадратными скобками обозначены формы облаков: Ci - перистые, Cs - перисто-слоистые, Cc - перисто-кучевые, Ac - высококучевые, As - высокослоистые, Sc - слоисто-кучевые, Ns - слоисто-дождевые, Cu - кучевые, Cb - кучево-дождевые. Подробнее классификацию облаков см. в Атласе облаков (PDF).
T - Температура воздуха - температура, измеренная на высоте 2 м над землей.
Td - Температура точки росы - температура, при понижении до которой содержащийся в воздухе водяной пар достигнет насыщения.
f - Относительная влажность воздуха - влажноcть воздуха, измеренная на высоте 2 м над землей.
Te - Эффективная температура - температура, которую ощущает одетый по сезону человек в тени. Характеристика душности погоды. При расчете учитывается влияние влажности воздуха и скорости ветра на теплоощущения человека.
Tes - Эффективная температура на солнце - температура, которую ощущает человек, с поправкой на солнечный нагрев. Характеристика знойности погоды. Зависит от высоты солнца над горизонтом, облачности и скорости ветра. Ночью, в пасмурную погоду, а также при ветре 12 м/с и более поправка равна нулю.
P - Атмосферное давление - приведенное к уровню моря атмосферное давление.
Po - Атмосферное давление - измеренное на уровне метеостанции атмосферное давление.
Tmin - Минимальная температура - минимум температуры воздуха на высоте 2 м над землей.
Tmax - Максимальная температура - максимум температуры воздуха на высоте 2 м над землей.
R - Количество осадков - Количество выпавших осадков за период времени, мм. При наведении курсора мыши на число - период времени, за который выпало указанное количество осадков.
R24 - Количество осадков - Количество выпавших осадков за 24 часа, мм.
S - Снежный покров - Высота снежного покрова, см. При наведении курсора мыши на число - состояние снежного покрова и степень покрытия местности в баллах.